Powrót do katalogu

STARLINK-32557

AktywnyŁącznośćVLEO
NORAD 62127·PAYLOAD·🇺🇸 United States

Wystrzelony Nov 27, 2024 z Cape Canaveral Space Force Station

Loading…

Następne Przeloty (najbliższe 24 godziny)

TLE

ŚwieżeSource: CelesTrak SupGP

Epoka: Sep 14, 2026, 21:36 UTC

1 62127C 24222P   26257.90048611 -.00057703  00000+0 -20900-2 0  2574
2 62127  42.9998 137.0169 0001369 269.5778 216.9221 15.27607519    18

Śledź STARLINK-32557 w czasie rzeczywistym z AllMySat

Download on the App Store